Grand Prairie, TX

12:28 PM CDT on September 19, 2017 (GMT -0500)
Grand Prairie Municipal

Weather History for KGPM - March, 2013

Change the Weather History Date:

Thursday, March 14, 2013

  Actual Average (KRBD) Record (KRBD)
Temperature  
Mean Temperature 64 °F -  
Max Temperature 77 °F 62 °F 88 °F (2016)
Min Temperature 50 °F 45 °F 35 °F (1999)
Degree Days  
Heating Degree Days 2    
Growing Degree Days 14 (Base 50)    
Moisture  
Dew Point 37 °F    
Average Humidity 47    
Maximum Humidity 62    
Minimum Humidity 27    
Precipitation  
Precipitation 0.00 in - - ()
Sea Level Pressure  
Sea Level Pressure 30.30 in    
Wind  
Wind Speed 5 mph (SSE)    
Max Wind Speed 14 mph    
Max Gust Speed 25 mph    
Visibility 10 miles    
Events      
Averages and records for this station are not official NWS values.
T = Trace of Precipitation, MM = Missing Value Source: NWS Daily Summary

Daily Weather History Graph

Daily Weather History Graph

Search for Another Location

Airport or City:

Trip Planner

Search our weather history database for the weather conditions in past years. The results will help you decide how hot, cold, wet, or windy it might be!

Date:

Astronomy

Mar. 14, 2013 Rise Set
Actual Time 7:39 AM CDT 7:35 PM CDT
Civil Twilight 7:14 AM CDT 8:00 PM CDT
Nautical Twilight 6:46 AM CDT 8:28 PM CDT
Astronomical Twilight 6:17 AM CDT 8:57 PM CDT
Moon 9:05 AM CDT (3/14) 10:39 PM CDT (3/14)
Length of Visible Light 12h 45m
Length of Day
11h 56m
Waxing Crescent, 9% of the Moon is Illuminated
Mar 14
Waxing Crescent
Mar 19
First Quarter
Mar 27
Full
Apr 2
Last Quarter
Apr 10
New

Hourly Weather History & Observations

Time (CDT) Temp. Dew Point Humidity Pressure Visibility Wind Dir Wind Speed Gust Speed Precip Events Conditions
12:15 AM 55.4 °F 33.8 °F 44% 30.35 in 10.0 mi ESE 4.6 mph - N/A   Clear
12:35 AM 53.6 °F 32.0 °F 44% 30.35 in 10.0 mi Calm Calm - N/A   Clear
12:55 AM 55.4 °F 32.0 °F 41% 30.35 in 10.0 mi SE 3.5 mph - N/A   Clear
1:15 AM 53.6 °F 32.0 °F 44% 30.35 in 10.0 mi SE 4.6 mph - N/A   Clear
1:35 AM 53.6 °F 32.0 °F 44% 30.35 in 10.0 mi SE 3.5 mph - N/A   Clear
1:55 AM 51.8 °F 32.0 °F 47% 30.35 in 10.0 mi Calm Calm - N/A   Clear
2:15 AM 51.8 °F 32.0 °F 47% 30.35 in 10.0 mi SE 4.6 mph - N/A   Clear
2:35 AM 51.8 °F 32.0 °F 47% 30.35 in 10.0 mi ESE 3.5 mph - N/A   Clear
2:55 AM 51.8 °F 32.0 °F 47% 30.35 in 10.0 mi Calm Calm - N/A   Clear
3:15 AM 50.0 °F 32.0 °F 50% 30.35 in 10.0 mi ESE 4.6 mph - N/A   Clear
3:35 AM 51.8 °F 32.0 °F 47% 30.35 in 10.0 mi Calm Calm - N/A   Clear
3:55 AM 50.0 °F 33.8 °F 54% 30.35 in 10.0 mi Calm Calm - N/A   Clear
4:15 AM 50.0 °F 33.8 °F 54% 30.34 in 10.0 mi SSE 3.5 mph - N/A   Clear
4:35 AM 50.0 °F 33.8 °F 54% 30.33 in 10.0 mi SSE 3.5 mph - N/A   Clear
4:55 AM 50.0 °F 33.8 °F 54% 30.33 in 10.0 mi SSE 4.6 mph - N/A   Clear
5:15 AM 50.0 °F 35.6 °F 58% 30.32 in 10.0 mi SSE 3.5 mph - N/A   Clear
5:35 AM 50.0 °F 35.6 °F 58% 30.32 in 10.0 mi South 4.6 mph - N/A   Clear
5:55 AM 50.0 °F 35.6 °F 58% 30.32 in 10.0 mi South 3.5 mph - N/A   Clear
6:15 AM 50.0 °F 35.6 °F 58% 30.32 in 10.0 mi Calm Calm - N/A   Clear
6:35 AM 50.0 °F 35.6 °F 58% 30.33 in 10.0 mi Calm Calm - N/A   Clear
6:50 AM 51.8 °F 37.4 °F 58% 30.33 in 10.0 mi South 3.5 mph - N/A   Clear
6:55 AM 50.0 °F 37.4 °F 62% 30.33 in 10.0 mi South 3.5 mph - N/A   Clear
7:50 AM 50.0 °F 37.4 °F 62% 30.34 in 10.0 mi South 3.5 mph - N/A   Clear
8:50 AM 51.8 °F 39.2 °F 62% 30.37 in 10.0 mi South 3.5 mph - N/A   Clear
9:50 AM 57.2 °F 39.2 °F 51% 30.38 in 10.0 mi South 6.9 mph 20.7 mph N/A   Clear
10:50 AM 60.8 °F 41.0 °F 48% 30.38 in 10.0 mi SSW 6.9 mph 20.7 mph N/A   Clear
11:50 AM 66.2 °F 39.2 °F 37% 30.35 in 10.0 mi South 11.5 mph 23.0 mph N/A   Clear
12:50 PM 69.8 °F 37.4 °F 31% 30.34 in 10.0 mi South 13.8 mph 25.3 mph N/A   Clear
1:50 PM 73.4 °F 39.2 °F 29% 30.31 in 10.0 mi SSW 13.8 mph 23.0 mph N/A   Clear
2:50 PM 75.2 °F 39.2 °F 27% 30.28 in 10.0 mi SSW 12.7 mph 20.7 mph N/A   Clear
3:50 PM 75.2 °F 41.0 °F 29% 30.25 in 10.0 mi South 12.7 mph 23.0 mph N/A   Clear
4:50 PM 77.0 °F 41.0 °F 28% 30.22 in 10.0 mi South 12.7 mph 18.4 mph N/A   Clear
5:50 PM 75.2 °F 42.8 °F 31% 30.22 in 10.0 mi South 11.5 mph - N/A   Clear
6:50 PM 73.4 °F 42.8 °F 33% 30.21 in 10.0 mi South 9.2 mph - N/A   Clear
7:50 PM 68.0 °F 44.6 °F 43% 30.21 in 10.0 mi SSE 8.1 mph - N/A   Clear
9:15 PM 66.2 °F 42.8 °F 43% 30.21 in 10.0 mi SSE 6.9 mph - N/A   Clear
9:35 PM 64.4 °F 41.0 °F 42% 30.21 in 10.0 mi South 6.9 mph - N/A   Clear
9:55 PM 64.4 °F 42.8 °F 45% 30.21 in 10.0 mi South 5.8 mph - N/A   Clear
10:15 PM 64.4 °F 42.8 °F 45% 30.21 in 10.0 mi South 5.8 mph - N/A   Clear
10:35 PM 64.4 °F 42.8 °F 45% 30.21 in 10.0 mi South 6.9 mph - N/A   Clear
10:55 PM 62.6 °F 42.8 °F 48% 30.21 in 10.0 mi South 5.8 mph - N/A   Clear
11:15 PM 62.6 °F 42.8 °F 48% 30.21 in 10.0 mi South 4.6 mph - N/A   Clear
11:55 PM 62.6 °F 42.8 °F 48% 30.20 in 10.0 mi South 10.4 mph - N/A   Clear